                ,  1.160,  1.308,  1.456,  1.604,  1.751,  1.899,  2.047,  2.194,  2.342,  2.490,  2.638,  2.785,  2.933,  3.081,  3.229,  3.376,  3.524,  3.672,  3.819,  3.967,  4.115,  4.263,  4.410,  4.558,  4.706,  4.853,  5.001,  5.149,  5.297,  5.444
2004/06/27 00:00,  999.0,  999.0,  999.0,   11.9,   13.9,   14.8,   14.7,  999.0,   17.3,   18.1,   17.4,   15.5,   14.7,   12.4,   11.1,   11.3,   11.5,    8.5,    5.0,    1.5,    1.7,    1.8,    2.7,    3.7,    4.3,    4.5,    4.6,    3.9,    2.9,    3.4
2004/06/27 00:10,    5.8,    9.9,  999.0,  999.0,  999.0,  999.0,  999.0,   17.6,   17.9,   17.1,   17.3,   16.4,   14.7,   11.2,    9.7,    9.8,    9.0,    7.2,    5.5,    3.3,    2.5,    2.6,  999.0,    3.6,    3.9,    3.9,    3.9,    3.8,    3.1,    2.9
2004/06/27 00:20,  999.0,   10.0,   10.3,  999.0,  999.0,  999.0,   17.5,   18.1,   17.8,   17.4,   16.5,   15.8,   13.3,   10.3,    8.9,    8.7,    8.4,    6.8,    4.0,    1.5,    1.0,    1.4,  999.0,    3.0,    3.0,    2.9,    3.1,    3.2,    3.3,    3.1
2004/06/27 00:30,  999.0,  999.0,  999.0,  999.0,  999.0,  999.0,  999.0,  999.0,   17.1,   18.2,   17.1,   15.6,   14.2,   11.0,    8.3,    8.0,    7.0,    6.2,    3.2,    1.6,   -0.5,    0.9,    1.8,    2.2,    1.7,    2.0,    2.4,    2.4,    2.5,    2.7
2004/06/27 00:40,  999.0,  999.0,  999.0,  999.0,  999.0,   15.8,   15.7,   16.6,   16.4,   17.5,   17.5,   15.9,   14.3,   10.6,    8.8,    7.4,    7.7,    7.2,    5.5,    3.5,    2.6,    1.6,    2.1,    2.8,    2.2,    2.4,    2.8,    2.7,    3.2,    3.3
2004/06/27 00:50,  999.0,   10.2,  999.0,  999.0,   18.7,  999.0,   14.3,   14.9,   16.7,   16.9,   16.7,   16.6,   14.0,   11.2,    8.7,    7.9,    8.0,    7.7,    5.6,    3.0,    3.0,    1.6,    2.3,    2.3,    2.5,    2.7,    3.6,    3.5,    3.1,    3.6
2004/06/27 01:00,    7.9,   14.3,   10.6,  999.0,  999.0,  999.0,  999.0,  999.0,   18.0,   16.0,   16.9,   16.1,   13.9,   12.3,    8.7,    6.7,    5.8,    5.8,    6.3,    4.6,    2.7,    1.7,  999.0,    2.4,    2.6,    3.6,    4.2,    3.3,    2.6,    4.1
2004/06/27 01:10,    8.5,    9.3,    9.3,  999.0,  999.0,  999.0,  999.0,   15.2,   16.0,   15.9,   15.4,   16.6,   14.6,   12.5,   10.6,    8.3,    7.9,    7.8,    7.5,    6.5,    5.2,    4.0,    3.5,    4.5,    3.7,    4.5,    4.4,    3.4,    1.0,    2.3
2004/06/27 01:20,  999.0,    9.8,  999.0,  999.0,  999.0,  999.0,  999.0,   13.4,   15.0,   14.8,   15.6,   15.4,   13.8,   11.6,   10.5,    8.7,    9.2,    9.7,    8.3,    7.4,    6.3,    5.4,    4.5,    3.8,    3.9,    3.9,    2.5,    2.4,    0.2,    2.8
2004/06/27 01:30,  999.0,  999.0,  999.0,  999.0,   -0.7,  999.0,  999.0,   14.9,   15.4,   15.0,   16.1,   15.9,   14.2,   11.6,   10.9,   10.1,    8.8,    9.8,   10.2,    8.1,    6.7,    6.3,    6.6,    6.8,    4.9,    4.0,    3.6,    2.9,    3.2,    3.8
2004/06/27 01:40,    7.4,    9.6,    9.9,   12.1,   13.0,   13.4,   13.5,   13.4,   14.4,   14.5,   15.4,   16.6,   15.8,   13.6,   12.2,   11.5,   10.8,   10.7,   11.3,    9.2,    8.4,  999.0,    6.3,    4.8,    4.1,    3.6,    3.7,    2.9,    3.5,    4.1
2004/06/27 01:50,    7.2,    8.1,    9.1,   11.3,   12.5,   13.3,   13.6,   14.6,   15.1,   14.9,   16.8,   18.1,   17.2,   15.3,   13.8,   12.2,   10.9,    9.0,    9.7,    9.8,    8.0,    6.9,    5.8,    5.3,    4.3,    2.7,    2.5,    2.5,    3.0,    3.8
2004/06/27 02:00,    5.7,    7.7,  999.0,   12.4,   12.4,   12.5,   14.0,   14.9,   15.5,   15.2,   16.5,   18.1,   17.5,   16.1,   15.3,   11.7,    9.3,    9.1,    9.3,    9.4,    8.1,    7.7,    5.2,    4.9,    3.1,    2.9,    2.5,    2.4,    2.7,    3.1
2004/06/27 02:10,    6.4,    8.0,   10.0,   11.1,   12.0,   12.5,   14.3,   15.4,   15.6,   14.6,   15.8,   17.4,   18.1,   17.6,   15.6,   13.9,   11.8,   10.4,    8.9,    9.5,    9.1,    7.9,    6.6,    6.6,    4.5,    3.9,    3.3,    3.3,    3.4,    3.2
2004/06/27 02:20,    6.2,    7.4,    8.7,   10.0,   11.3,   11.5,   13.2,   15.4,   16.2,   16.3,   16.2,   16.2,   17.6,   18.0,   16.6,   14.5,   11.9,   10.6,    9.0,    8.7,    9.1,    7.1,    6.8,    6.4,    5.4,    5.1,    4.0,    3.1,    3.0,    2.8
2004/06/27 02:30,  999.0,  999.0,  999.0,  999.0,  999.0,  999.0,  999.0,   16.6,   17.2,   16.7,   17.3,   17.3,   18.3,   18.1,   16.4,   14.3,   12.9,   11.1,    8.8,    8.8,    9.1,    6.2,    7.1,    6.1,    5.5,    4.8,    3.9,    3.6,    3.5,    2.6
2004/06/27 02:40,  999.0,  999.0,  999.0,    9.5,   11.8,   13.4,   12.7,   14.4,   15.6,   16.3,   16.7,   16.9,   16.0,   15.6,   14.9,   13.1,   12.4,   10.3,    9.0,    9.2,    8.5,  999.0,    8.4,    6.1,    4.7,    4.0,    3.9,    4.6,    6.6,  999.0
2004/06/27 02:50,  999.0,  999.0,  999.0,  999.0,    9.6,   11.2,   11.8,   13.7,   14.9,   14.7,   16.7,   16.6,   16.2,   14.3,   13.1,   11.5,   11.8,   10.3,    8.6,    7.8,    8.3,    8.4,    7.9,    6.5,    6.1,    5.7,    5.4,    5.9,    6.2,    6.6
2004/06/27 03:00,    4.9,    3.8,    9.7,  999.0,  999.0,  999.0,  999.0,   12.5,  999.0,  999.0,  999.0,  999.0,  999.0,  999.0,   12.9,   13.0,   10.5,    9.6,    9.0,    7.5,    6.4,    7.6,    7.7,    6.5,    5.8,    5.5,    4.6,    5.4,    6.8,    8.3
2004/06/27 03:10,    6.4,    7.8,    9.8,  999.0,  999.0,  999.0,  999.0,   11.5,   12.3,  999.0,  999.0,  999.0,  999.0,  999.0,  999.0,  999.0,   11.4,   11.1,   11.3,    9.0,    7.7,    7.2,    6.8,    7.0,    6.3,    5.2,    5.1,    4.2,    6.8,    7.8
2004/06/27 03:20,    8.7,  999.0,    7.8,  999.0,  999.0,   10.7,   10.9,   11.5,   12.8,   14.0,   15.0,   15.2,   16.1,   16.9,   17.8,   15.8,   13.5,   10.8,    9.5,    8.0,    6.6,    7.2,    7.1,    7.2,    6.5,  999.0,    5.4,    6.2,    7.0,    7.1
2004/06/27 03:30,  999.0,  999.0,  999.0,  999.0,   10.7,   10.5,   10.7,   11.1,   12.5,   13.8,   14.0,   14.3,   14.7,   14.8,   16.2,   15.9,   14.7,   12.4,   11.0,   10.3,    8.9,    7.1,    8.0,    6.8,    6.1,  999.0,  999.0,    6.5,    7.2,    6.3
2004/06/27 03:40,  999.0,  999.0,  999.0,    9.0,   11.5,   10.5,   10.0,   10.6,   11.2,   12.2,   12.9,   13.8,   13.9,   14.0,   15.2,   15.1,   15.0,   13.0,    9.5,   10.4,    9.6,    8.5,    7.8,    7.0,    6.0,    6.2,    6.1,    9.0,    7.6,    7.5
2004/06/27 03:50,    4.3,    6.1,    7.3,    9.6,   10.9,   10.5,   10.3,   10.5,   10.5,   10.8,   11.4,   12.4,   12.9,   13.6,   14.3,   15.4,   15.5,   13.2,   10.8,    9.9,    9.6,    8.8,    8.6,    8.5,    6.2,    6.1,    6.5,    6.2,    6.3,    7.1
2004/06/27 04:00,    4.8,    6.5,    8.4,    9.9,   10.8,   10.6,   10.8,   10.6,   10.6,   10.6,   11.1,   11.9,   11.9,   12.5,   14.0,   14.5,   15.3,   14.1,   11.6,   10.6,   10.2,    9.0,    9.4,    8.0,    7.7,    6.5,    6.8,    7.1,    7.2,    7.6
2004/06/27 04:10,  999.0,  999.0,  999.0,    8.5,    9.5,   10.8,   11.1,   10.8,   10.1,   10.5,   10.8,   11.7,   12.0,   12.7,   14.7,   15.1,   15.0,   15.4,   15.5,   11.8,   11.9,    9.8,   10.4,    8.2,    7.9,    6.6,    7.5,    7.2,    7.6,    8.1
2004/06/27 04:20,   11.4,    5.2,  999.0,    8.1,   10.6,   10.1,    9.7,    9.7,   10.1,   11.0,   10.4,   11.0,   12.5,   12.4,   13.1,   14.1,   15.6,   15.5,   14.9,   13.7,   10.2,  999.0,   10.4,    9.0,    7.8,    6.2,    6.9,    7.1,    6.8,    7.8
2004/06/27 04:30,    3.0,    7.0,    6.9,    6.8,  999.0,  999.0,  999.0,  999.0,  999.0,  999.0,  999.0,  999.0,  999.0,  999.0,  999.0,  999.0,  999.0,  999.0,   12.3,   13.5,   11.1,    9.3,    9.9,    9.0,    7.4,    6.4,  999.0,    5.7,    6.0,    7.1
2004/06/27 04:40,    5.8,    5.3,    3.1,    9.4,  999.0,  999.0,  999.0,  999.0,  999.0,  999.0,  999.0,  999.0,  999.0,  999.0,  999.0,  999.0,  999.0,  999.0,   12.7,   12.8,   11.8,   10.8,   10.5,    9.1,    8.6,    7.1,    6.9,  999.0,    6.7,    8.2
2004/06/27 04:50,    4.2,    6.2,    5.6,    5.9,  999.0,  999.0,    9.4,  999.0,  999.0,  999.0,  999.0,  999.0,  999.0,  999.0,  999.0,  999.0,  999.0,  999.0,  999.0,   14.9,   13.5,   10.5,   10.2,  999.0,  999.0,  999.0,  999.0,  999.0,  999.0,  999.0
2004/06/27 05:00,    3.4,    4.3,    4.5,    9.0,  999.0,  999.0,  999.0,  999.0,  999.0,  999.0,  999.0,  999.0,  999.0,  999.0,  999.0,  999.0,  999.0,  999.0,  999.0,  999.0,  999.0,   10.6,   10.6,  999.0,  999.0,  999.0,  999.0,  999.0,  999.0,  999.0
2004/06/27 05:10,    3.0,    2.5,    3.8,    4.9,  999.0,  999.0,  999.0,  999.0,  999.0,  999.0,  999.0,  999.0,  999.0,  999.0,  999.0,  999.0,  999.0,  999.0,  999.0,  999.0,  999.0,  999.0,  999.0,  999.0,  999.0,  999.0,  999.0,  999.0,  999.0,  999.0
2004/06/27 05:20,    2.3,    3.8,    3.9,    6.3,  999.0,  999.0,  999.0,  999.0,  999.0,  999.0,  999.0,  999.0,  999.0,  999.0,    2.7,  999.0,  999.0,  999.0,  999.0,  999.0,  999.0,  999.0,  999.0,  999.0,  999.0,  999.0,  999.0,  999.0,  999.0,  999.0
2004/06/27 05:30,  999.0,    4.3,    2.7,    5.3,    4.6,  999.0,  999.0,  999.0,    7.6,  999.0,  999.0,  999.0,  999.0,  999.0,    0.9,  999.0,  999.0,  999.0,  999.0,  999.0,  999.0,  999.0,  999.0,  999.0,  999.0,  999.0,  999.0,  999.0,  999.0,  999.0
2004/06/27 05:40,    2.5,    3.7,    0.7,    3.0,    5.6,  999.0,  999.0,  999.0,  999.0,  999.0,  999.0,  999.0,  999.0,  999.0,  999.0,  999.0,  999.0,  999.0,  999.0,  999.0,  999.0,  999.0,  999.0,  999.0,    9.9,  999.0,    8.3,  999.0,  999.0,  999.0
2004/06/27 05:50,    2.1,  999.0,    1.0,    0.3,    6.0,   10.4,  999.0,    9.1,  999.0,  999.0,  999.0,  999.0,  999.0,  999.0,  999.0,  999.0,  999.0,  999.0,  999.0,  999.0,  999.0,   12.0,   11.1,    9.4,  999.0,    8.8,    8.9,    7.9,    9.1,    9.3
2004/06/27 06:00,  999.0,   -7.8,    2.8,    6.1,    8.5,   10.8,    9.4,    9.1,  999.0,  999.0,  999.0,  999.0,  999.0,  999.0,    1.3,  999.0,  999.0,  999.0,  999.0,  999.0,   12.3,   12.9,   10.7,    9.7,    8.9,  999.0,  999.0,  999.0,  999.0,    8.3
2004/06/27 06:10,    5.2,    4.5,    5.0,    7.7,    7.8,    9.6,    9.0,    8.7,  999.0,  999.0,  999.0,  999.0,  999.0,  999.0,   -1.2,  999.0,  999.0,  999.0,  999.0,  999.0,  999.0,   12.5,   10.9,    9.3,  999.0,  999.0,  999.0,  999.0,  999.0,  999.0
2004/06/27 06:20,  999.0,    3.9,    2.9,    8.6,    8.8,    9.8,    8.7,    9.6,    6.9,  999.0,  999.0,  999.0,  999.0,  999.0,  999.0,  999.0,  999.0,  999.0,  999.0,  999.0,  999.0,  999.0,  999.0,  999.0,  999.0,  999.0,  999.0,  999.0,  999.0,  999.0
2004/06/27 06:30,  999.0,  999.0,    3.4,    7.2,    9.9,    8.9,    8.0,    8.6,    7.1,  999.0,  999.0,  999.0,  999.0,    0.3,    0.5,  999.0,  999.0,  999.0,  999.0,  999.0,  999.0,  999.0,  999.0,  999.0,  999.0,  999.0,  999.0,  999.0,  999.0,    9.2
2004/06/27 06:40,  999.0,  999.0,    5.5,    8.4,   10.2,    9.6,  999.0,  999.0,  999.0,  999.0,  999.0,  999.0,  999.0,  999.0,    0.8,  999.0,  999.0,  999.0,  999.0,  999.0,  999.0,  999.0,  999.0,    1.7,  999.0,  999.0,  999.0,  999.0,  999.0,  999.0
2004/06/27 06:50,  999.0,  999.0,  999.0,    6.6,    9.4,    9.1,  999.0,  999.0,  999.0,  999.0,  999.0,  999.0,  999.0,   -0.2,    0.2,    1.2,  999.0,  999.0,    0.1,  999.0,  999.0,  999.0,   -0.4,    0.5,  999.0,  999.0,  999.0,  999.0,  999.0,  999.0
2004/06/27 07:00,    5.0,    7.3,    8.3,    9.1,    9.6,    9.5,    9.6,  999.0,  999.0,  999.0,  999.0,  999.0,  999.0,  999.0,  999.0,   -0.4,  999.0,  999.0,  999.0,  999.0,  999.0,  999.0,    0.7,   -1.0,  999.0,  999.0,  999.0,  999.0,  999.0,    0.3
2004/06/27 07:10,    5.7,    7.0,    6.8,    8.0,    9.1,    9.5,    7.4,  999.0,    7.1,  999.0,  999.0,  999.0,  999.0,  999.0,  999.0,  999.0,  999.0,  999.0,  999.0,  999.0,  999.0,  999.0,   -0.3,  999.0,  999.0,  999.0,  999.0,  999.0,  999.0,    0.1
2004/06/27 07:20,    5.1,    7.0,    7.5,    8.9,    9.4,    9.2,    7.8,  999.0,  999.0,  999.0,  999.0,  999.0,  999.0,   -0.4,   -1.1,    0.1,  999.0,  999.0,  999.0,  999.0,  999.0,  999.0,  999.0,  999.0,  999.0,  999.0,  999.0,  999.0,  999.0,    0.5
2004/06/27 07:30,    0.8,    6.3,    7.9,    8.3,    9.0,    9.2,    8.1,  999.0,  999.0,  999.0,  999.0,  999.0,  999.0,  999.0,    0.2,  999.0,  999.0,  999.0,  999.0,  999.0,  999.0,  999.0,    0.1,   -0.8,  999.0,  999.0,  999.0,  999.0,  999.0,   -0.3
2004/06/27 07:40,  999.0,    6.5,  999.0,  999.0,    8.6,    8.6,  999.0,  999.0,  999.0,  999.0,  999.0,  999.0,  999.0,  999.0,   -0.3,  999.0,  999.0,  999.0,  999.0,  999.0,  999.0,  999.0,   -0.4,   -0.4,  999.0,  999.0,  999.0,  999.0,  999.0,   -0.9
2004/06/27 07:50,   -1.7,    6.1,  999.0,  999.0,    8.2,    7.7,    7.0,    7.6,  999.0,  999.0,  999.0,  999.0,  999.0,  999.0,    0.5,  999.0,  999.0,  999.0,  999.0,  999.0,  999.0,  999.0,    0.1,  999.0,  999.0,  999.0,  999.0,  999.0,  999.0,  999.0
2004/06/27 08:00,  999.0,    6.4,    9.0,  999.0,    8.3,    8.2,    8.3,    6.4,  999.0,  999.0,  999.0,  999.0,  999.0,  999.0,    4.7,  999.0,  999.0,  999.0,  999.0,  999.0,  999.0,  999.0,    0.0,    0.7,  999.0,  999.0,  999.0,  999.0,  999.0,    0.9
2004/06/27 08:10,  999.0,    8.6,    8.7,  999.0,    8.5,    8.2,    7.4,    7.0,  999.0,  999.0,  999.0,  999.0,  999.0,  999.0,   -0.0,  999.0,  999.0,  999.0,  999.0,  999.0,  999.0,  999.0,    0.0,  999.0,  999.0,  999.0,  999.0,  999.0,   -0.7,  999.0
2004/06/27 08:20,    7.2,    8.1,   11.4,  999.0,    8.2,    8.3,    6.8,    6.5,  999.0,  999.0,  999.0,  999.0,  999.0,  999.0,    1.0,    0.1,  999.0,  999.0,  999.0,  999.0,  999.0,  999.0,    0.3,    0.1,  999.0,  999.0,  999.0,  999.0,   -0.3,    0.4
2004/06/27 08:30,    7.9,  999.0,  999.0,    9.5,    8.8,    8.4,    7.7,  999.0,  999.0,  999.0,  999.0,  999.0,  999.0,  999.0,    0.6,   -0.6,  999.0,  999.0,  999.0,  999.0,  999.0,  999.0,  999.0,  999.0,  999.0,  999.0,  999.0,  999.0,    0.2,  999.0
2004/06/27 08:40,    4.3,  999.0,   12.7,  999.0,    8.9,    8.0,    8.1,  999.0,  999.0,  999.0,  999.0,  999.0,  999.0,   -0.5,   -0.3,    2.3,  999.0,  999.0,   -0.5,  999.0,  999.0,  999.0,    0.4,  999.0,  999.0,  999.0,  999.0,  999.0,    1.0,  999.0
2004/06/27 08:50,    8.9,   11.3,  999.0,  999.0,    9.3,    8.2,    7.9,  999.0,  999.0,  999.0,  999.0,  999.0,  999.0,  999.0,    0.9,    1.8,  999.0,   -0.1,    0.1,    0.4,  999.0,   -0.7,    0.3,  999.0,  999.0,  999.0,  999.0,  999.0,  999.0,  999.0
2004/06/27 09:00,  999.0,    8.8,   10.7,   10.2,  999.0,    9.8,    8.6,    6.2,  999.0,  999.0,  999.0,  999.0,  999.0,   -0.3,    1.7,  999.0,  999.0,   -0.9,  999.0,  999.0,  999.0,    1.2,  999.0,   -1.0,  999.0,  999.0,  999.0,  999.0,  999.0,    4.7
2004/06/27 09:10,  999.0,    5.7,    9.0,    9.4,    9.4,    8.2,    8.3,    7.3,  999.0,  999.0,  999.0,  999.0,  999.0,  999.0,    0.3,    0.8,  999.0,    0.4,    0.5,  999.0,  999.0,  999.0,   -0.3,   -1.0,  999.0,  999.0,  999.0,  999.0,    2.2,    4.6
2004/06/27 09:20,    7.3,   10.8,   10.2,    9.8,    9.6,    8.8,    9.4,    5.6,  999.0,  999.0,  999.0,  999.0,  999.0,    0.5,   -0.1,   -0.7,  999.0,   -0.2,    2.8,   -0.5,  999.0,   -2.3,    1.1,   -0.3,  999.0,  999.0,  999.0,  999.0,    1.6,    5.0
2004/06/27 09:30,    6.5,    7.4,    9.6,    9.9,   10.7,    9.2,    7.8,  999.0,  999.0,  999.0,  999.0,  999.0,  999.0,  999.0,  999.0,  999.0,  999.0,    0.3,  999.0,    0.6,  999.0,  999.0,   -0.5,   -0.1,  999.0,  999.0,  999.0,    5.6,    4.4,    5.6
2004/06/27 09:40,    5.0,    7.0,    9.4,   10.2,   10.7,    9.0,    8.8,  999.0,  999.0,  999.0,  999.0,  999.0,  999.0,  999.0,    1.3,  999.0,  999.0,   -3.0,    0.9,   -0.1,  999.0,  999.0,  999.0,   -1.0,  999.0,  999.0,    3.3,    6.5,    6.2,    6.2
2004/06/27 09:50,    5.7,    7.0,   10.8,   11.0,   10.8,    9.5,    8.7,  999.0,  999.0,  999.0,  999.0,  999.0,  999.0,  999.0,    1.7,  999.0,  999.0,  999.0,   -0.9,  999.0,  999.0,  999.0,   -1.7,  999.0,  999.0,  999.0,  999.0,    3.9,    4.2,    6.1
2004/06/27 10:00,    4.6,    7.6,    9.0,   11.0,   11.4,   10.0,    9.6,    9.1,  999.0,  999.0,  999.0,  999.0,  999.0,  999.0,   -0.4,  999.0,  999.0,  999.0,   -0.6,  999.0,  999.0,  999.0,   -0.6,   -0.7,  999.0,  999.0,    1.8,    3.3,  999.0,  999.0
2004/06/27 10:10,  999.0,  999.0,    8.6,   10.2,   10.4,   10.9,   10.2,   10.4,    9.9,  999.0,  999.0,  999.0,  999.0,  999.0,  999.0,  999.0,  999.0,  999.0,   13.1,  999.0,  999.0,  999.0,  999.0,    4.0,    1.8,    1.2,    1.5,    2.1,    2.6,    4.1
2004/06/27 10:20,  999.0,    6.9,    8.5,   10.4,   10.8,   10.0,   11.3,   10.4,   10.2,    9.7,  999.0,  999.0,  999.0,  999.0,  999.0,  999.0,  999.0,  999.0,  999.0,  999.0,  999.0,    6.9,    4.4,    2.6,    1.7,    1.8,    2.2,    2.5,    3.1,    4.7
2004/06/27 10:30,  999.0,    5.8,    8.6,   10.2,   11.1,   10.3,    9.2,   12.4,   11.4,   10.0,  999.0,  999.0,  999.0,  999.0,  999.0,  999.0,  999.0,  999.0,  999.0,  999.0,  999.0,    6.7,    5.3,    3.1,    2.0,    2.3,    2.7,    3.6,    3.9,    5.2
2004/06/27 10:40,  999.0,    4.5,    7.9,   10.9,   11.4,   10.7,   11.0,   10.0,   10.9,  999.0,  999.0,  999.0,  999.0,  999.0,   -0.7,  999.0,  999.0,  999.0,  999.0,  999.0,  999.0,    8.8,    5.4,    3.2,    2.6,    2.5,    2.7,    3.2,  999.0,    5.3
2004/06/27 10:50,    4.0,  999.0,    7.5,   10.3,   10.7,   10.4,    9.9,    9.8,   10.0,   10.1,  999.0,  999.0,  999.0,  999.0,    1.8,  999.0,  999.0,  999.0,  999.0,  999.0,  999.0,    8.1,    7.4,    5.5,    3.1,    3.1,    3.0,    3.8,    4.4,    5.6
2004/06/27 11:00,    5.2,    5.6,    8.9,   10.6,   11.9,   10.6,   10.3,  999.0,   10.1,    9.4,  999.0,  999.0,  999.0,    0.3,    0.1,  999.0,  999.0,  999.0,  999.0,  999.0,    8.2,    8.2,    7.0,    6.0,    5.1,    3.7,    2.9,    3.4,    3.8,    4.9
2004/06/27 11:10,    4.7,    5.3,    6.3,   10.3,   12.1,   10.7,   11.4,  999.0,    8.6,  999.0,  999.0,  999.0,  999.0,  999.0,   -0.6,  999.0,  999.0,  999.0,  999.0,  999.0,    7.7,    8.3,    7.6,    6.7,    5.8,    4.7,    3.1,    3.1,    3.7,    5.0
2004/06/27 11:20,    4.3,    5.1,    7.7,   10.1,   11.2,   11.8,   11.0,  999.0,   11.5,   12.0,  999.0,  999.0,  999.0,    0.8,    0.4,  999.0,  999.0,  999.0,  999.0,  999.0,    8.2,    9.1,    7.6,    6.4,    5.0,    4.4,    3.5,    3.6,    3.9,    4.9
2004/06/27 11:30,    2.9,    5.1,    7.6,    9.9,   11.1,   11.3,   11.2,    9.6,   10.4,   10.8,  999.0,  999.0,  999.0,   -0.2,    0.0,  999.0,  999.0,  999.0,  999.0,  999.0,  999.0,    7.4,    6.7,    5.6,    4.9,    4.0,    3.4,    3.3,    4.0,    4.6
2004/06/27 11:40,    1.5,    3.5,    6.3,   10.2,   10.2,   10.9,   10.5,  999.0,    9.6,   10.4,  999.0,  999.0,  999.0,  999.0,   -0.0,  999.0,  999.0,  999.0,    3.5,  999.0,  999.0,  999.0,  999.0,    5.4,    4.7,    4.1,    4.1,    4.3,    4.8,    4.9
2004/06/27 11:50,    4.7,    6.7,    8.8,   11.3,   11.5,   10.1,   10.2,   10.4,  999.0,    9.2,   10.1,  999.0,  999.0,    0.1,    0.7,   -0.0,  999.0,    1.1,   -0.6,  999.0,  999.0,    2.8,  999.0,    4.6,    3.4,    3.4,    3.5,    3.6,    4.5,    5.2
2004/06/27 12:00,    4.0,    6.4,    8.1,    9.8,   10.1,   10.8,    9.8,   10.9,  999.0,   10.5,  999.0,  999.0,    0.4,    0.3,    0.0,   -0.4,  999.0,   -1.1,  999.0,    1.4,   -0.9,  999.0,   -0.2,    4.1,    2.9,    3.1,    3.3,    4.0,    5.0,    5.8
2004/06/27 12:10,    6.1,    6.0,    8.7,    9.2,   10.0,    9.8,   10.6,    9.0,   12.7,    9.4,  999.0,  999.0,  999.0,    1.1,    0.5,    0.4,  999.0,  999.0,    0.8,  999.0,  999.0,    1.1,    2.3,    0.5,    0.0,    2.4,    3.1,    4.4,  999.0,  999.0
2004/06/27 12:20,    4.8,    6.9,    8.0,    9.0,   10.2,    9.8,    9.1,    9.4,   12.3,    9.5,    9.3,  999.0,    1.2,    0.4,    0.1,  999.0,  999.0,   -0.2,   -0.3,    3.9,  999.0,    1.6,   -0.2,    0.6,    3.2,    2.5,    3.3,    4.3,    5.6,    7.9
2004/06/27 12:30,    6.7,    8.6,    8.1,    9.5,   10.1,    9.5,    9.5,   10.1,   10.4,   10.0,    9.5,  999.0,   -0.6,  999.0,   -0.0,   -1.3,  999.0,  999.0,   -0.6,    0.9,    0.7,    1.7,    1.1,    0.8,    1.0,    2.8,  999.0,    4.6,    6.0,    7.9
2004/06/27 12:40,    5.2,    8.4,   10.3,    9.1,    9.1,    9.0,    9.2,   10.3,    9.6,    9.9,    9.8,  999.0,    1.0,    0.3,  999.0,  999.0,   -0.1,    0.6,  999.0,  999.0,    3.4,    1.9,    0.3,  999.0,    3.9,    3.2,    5.3,    6.2,    8.0,    8.6
2004/06/27 12:50,    7.2,    8.5,    9.5,    9.9,    7.9,    9.5,    9.1,   10.1,   10.7,    9.5,    9.3,  999.0,   -0.1,    0.3,   -0.6,    0.1,  999.0,    0.2,  999.0,    5.2,    2.9,  999.0,    1.2,    2.6,    4.1,    3.5,    5.5,    7.5,    9.5,    8.8
2004/06/27 13:00,    7.3,    8.3,    9.4,    9.8,    9.3,    8.2,    9.8,    9.7,  999.0,   11.0,   10.7,  999.0,  999.0,    2.0,    0.0,  999.0,    0.2,    1.2,  999.0,    7.9,    4.1,  999.0,    0.6,    3.3,    4.0,    4.9,    6.9,  999.0,    8.3,    7.7
2004/06/27 13:10,    8.0,    8.4,    9.9,    9.8,    9.8,   10.6,   10.0,   10.6,   11.6,   10.7,  999.0,  999.0,  999.0,    2.9,    1.4,    1.3,  999.0,   10.9,    7.9,    6.7,    4.5,  999.0,  999.0,    4.8,    5.5,    7.0,    8.3,    9.1,    8.7,    6.4
2004/06/27 13:20,    6.8,    7.8,    9.5,   10.2,   10.0,    9.4,    9.8,   10.2,   13.1,   11.0,   11.2,  999.0,   10.5,    7.9,   -0.3,    7.0,   10.1,    8.9,    8.0,    6.5,    2.4,  999.0,    0.0,    2.0,  999.0,    7.3,  999.0,  999.0,  999.0,  999.0
2004/06/27 13:30,    6.6,    7.7,    8.9,    9.7,   11.2,   10.8,   10.0,   10.2,   12.0,   11.3,   10.5,  999.0,    9.0,    0.3,   -0.2,    1.6,    9.7,    6.4,    7.1,    7.5,    4.7,    3.2,    1.5,    0.4,  999.0,  999.0,  999.0,  999.0,  999.0,  999.0
2004/06/27 13:40,    7.1,    8.7,    9.0,    9.6,    9.8,    9.3,   10.0,   10.8,   12.0,    9.8,   11.3,  999.0,  999.0,    5.3,    0.3,  999.0,  999.0,    0.3,    5.1,    6.0,    4.7,    1.8,    0.9,    1.0,  999.0,  999.0,  999.0,  999.0,  999.0,  999.0
2004/06/27 13:50,    6.6,    6.5,    7.5,    8.4,   10.0,   10.4,   10.1,   10.7,   11.7,    9.6,    9.7,  999.0,  999.0,   11.3,   -0.3,    0.1,  999.0,    0.8,    2.6,    0.6,    3.5,    1.6,  999.0,  999.0,   -0.2,  999.0,  999.0,  999.0,  999.0,  999.0
2004/06/27 14:00,    7.4,    7.7,    7.3,    8.4,   10.4,   12.3,   11.7,   13.1,   10.9,    9.5,   10.6,  999.0,    9.4,   10.5,   -0.0,   -1.1,   -0.2,   -3.1,   -0.0,  999.0,    5.4,    0.8,    0.2,  999.0,    0.3,  999.0,  999.0,  999.0,  999.0,  999.0
2004/06/27 14:10,    7.9,    7.2,    7.0,    6.9,    8.8,    8.9,    9.3,   12.0,  999.0,   10.6,  999.0,  999.0,    5.3,    0.4,   -0.4,   -0.2,  999.0,    1.0,   -0.6,  999.0,    2.2,    0.6,    0.1,    0.4,  999.0,  999.0,  999.0,  999.0,  999.0,  999.0
2004/06/27 14:20,    8.1,    6.9,    7.7,    9.1,    9.8,   11.0,   12.0,   12.9,  999.0,  999.0,    9.4,  999.0,    5.8,  999.0,    0.2,   -0.5,    0.1,    0.1,    0.4,    3.0,    5.3,    1.9,    0.5,   -0.5,    1.0,  999.0,  999.0,  999.0,  999.0,  999.0
2004/06/27 14:30,    8.0,    9.2,    9.4,   10.1,    9.7,    9.9,    9.7,   11.7,   10.6,   10.7,  999.0,  999.0,    2.1,    6.0,    0.1,  999.0,   -1.0,   -0.2,   -0.1,    0.4,    4.7,    0.8,    0.2,   -0.6,  999.0,  999.0,  999.0,  999.0,  999.0,    0.5
2004/06/27 14:40,    6.4,    7.6,    9.0,   10.2,    9.8,    9.0,    9.5,   11.4,   11.7,    8.4,    9.5,  999.0,  999.0,    9.9,    0.5,    0.3,  999.0,    0.8,   -0.8,    1.3,    4.4,    0.2,    2.3,    0.9,    0.2,  999.0,  999.0,  999.0,  999.0,  999.0
2004/06/27 14:50,    5.7,    7.0,    7.8,    9.0,    9.5,    9.3,   10.0,   10.3,   10.8,  999.0,    9.9,  999.0,    6.2,    8.6,    0.7,    0.0,  999.0,    0.4,   -0.3,    2.9,    4.2,   -0.1,    0.2,    0.2,  999.0,  999.0,   -1.5,  999.0,  999.0,  999.0
2004/06/27 15:00,    6.4,    8.4,    7.5,    8.5,    9.7,   11.0,   11.0,   11.3,   11.1,  999.0,    9.6,  999.0,    9.9,   10.1,    0.4,  999.0,   -0.6,  999.0,    0.4,    2.3,    4.8,    0.2,    0.9,   -0.4,   -1.7,  999.0,  999.0,  999.0,  999.0,  999.0
2004/06/27 15:10,    7.7,    8.7,    7.2,    7.3,    9.4,   12.8,   10.7,   12.7,   13.5,  999.0,  999.0,  999.0,  999.0,    8.4,   -0.9,  999.0,  999.0,    0.2,  999.0,    1.7,  999.0,   -0.8,  999.0,   -0.4,  999.0,  999.0,  999.0,  999.0,  999.0,  999.0
2004/06/27 15:20,    6.0,    8.3,    8.5,    7.8,    7.7,   10.1,    9.7,    9.7,   10.7,  999.0,  999.0,  999.0,  999.0,    3.8,    0.5,    0.3,   -0.3,    0.2,    0.9,    0.9,    1.9,    0.2,    1.0,   -0.3,  999.0,  999.0,  999.0,  999.0,  999.0,  999.0
2004/06/27 15:30,    6.7,    6.8,    7.0,    7.6,    7.9,    8.5,    9.5,    8.5,    9.2,  999.0,  999.0,    8.4,    7.5,    1.1,    1.1,  999.0,    0.4,    0.1,    0.1,   -0.5,    2.1,    0.1,   -0.8,   -0.1,   -0.2,  999.0,  999.0,  999.0,  999.0,  999.0
2004/06/27 15:40,    5.6,    8.3,    8.0,    8.4,    8.4,    8.9,    8.5,    7.9,    8.7,   10.5,  999.0,    7.2,  999.0,  999.0,    1.7,  999.0,    0.1,    0.8,   -0.7,    1.0,    1.4,  999.0,   -0.5,  999.0,   -0.7,  999.0,  999.0,  999.0,  999.0,  999.0
2004/06/27 15:50,    7.6,    8.2,    7.9,    7.9,    7.1,    7.2,    9.0,   10.6,    9.1,  999.0,  999.0,    4.7,    6.0,    0.5,    2.4,  999.0,  999.0,   -0.2,  999.0,    0.9,  999.0,   -0.6,   -0.7,  999.0,  999.0,  999.0,  999.0,  999.0,  999.0,  999.0
2004/06/27 16:00,    6.7,    8.3,    8.8,    9.3,    8.2,    8.0,    8.6,    8.4,    9.7,  999.0,    7.4,  999.0,    3.1,    1.8,  999.0,  999.0,  999.0,    0.2,   -0.0,    0.1,  999.0,  999.0,   -0.2,    0.2,  999.0,  999.0,  999.0,  999.0,  999.0,  999.0
2004/06/27 16:10,    7.1,    7.8,    8.5,    7.3,    8.7,    8.8,    9.4,    9.9,  999.0,    8.6,    8.8,  999.0,  999.0,   -0.2,    1.3,    0.3,  999.0,    0.4,  999.0,    0.2,    1.6,  999.0,    0.7,  999.0,  999.0,  999.0,  999.0,  999.0,  999.0,  999.0
2004/06/27 16:20,    7.2,    8.1,    8.7,    9.0,    9.5,   10.0,    9.7,   10.0,   10.4,    9.4,    7.0,    7.6,    6.0,    2.4,    1.2,   -0.5,  999.0,    0.6,    0.4,    3.4,    4.1,    2.4,    0.7,   -2.3,  999.0,  999.0,  999.0,  999.0,  999.0,  999.0
2004/06/27 16:30,    6.9,    8.2,    8.9,    8.3,    8.8,   10.0,   10.2,    8.9,   10.0,   10.0,    8.7,    8.9,    5.7,    2.7,    0.8,  999.0,    0.0,   -1.1,    0.6,    3.4,    5.0,    1.2,    0.6,  999.0,  999.0,  999.0,  999.0,  999.0,  999.0,  999.0
2004/06/27 16:40,    6.5,    8.7,    8.5,    9.2,    8.3,    9.8,  999.0,   10.6,    9.9,    9.6,    8.8,  999.0,  999.0,    9.1,  999.0,  999.0,  999.0,    0.2,    1.5,  999.0,    6.3,    5.3,    0.9,  999.0,  999.0,  999.0,  999.0,  999.0,  999.0,  999.0
2004/06/27 16:50,    5.9,    8.3,    8.9,    8.8,    9.2,   11.2,   10.3,   10.5,   10.0,    9.9,    9.1,    9.5,  999.0,    7.7,    3.9,   -0.3,  999.0,    0.9,    1.3,  999.0,    6.6,    3.8,  999.0,    0.6,  999.0,  999.0,  999.0,  999.0,  999.0,  999.0
2004/06/27 17:00,    6.0,    7.5,    8.4,    8.9,    9.5,    9.8,    9.8,   10.0,   11.3,   11.3,   10.4,   10.3,  999.0,    5.4,    0.4,  999.0,  999.0,  999.0,    0.7,  999.0,    4.3,    1.8,  999.0,    0.1,  999.0,  999.0,  999.0,  999.0,  999.0,  999.0
2004/06/27 17:10,    7.1,    7.5,    6.4,    8.2,    9.4,   10.5,   10.0,   10.8,   11.1,   10.1,    9.8,    8.6,  999.0,  999.0,  999.0,    0.2,  999.0,  999.0,  999.0,    2.2,  999.0,  999.0,  999.0,  999.0,  999.0,  999.0,  999.0,  999.0,  999.0,  999.0
2004/06/27 17:20,    5.5,    7.0,    7.0,    8.5,    9.2,    9.3,    9.1,    9.7,   10.2,    9.6,    9.5,  999.0,  999.0,    5.8,  999.0,  999.0,  999.0,  999.0,    0.4,    1.4,  999.0,  999.0,    0.0,  999.0,  999.0,  999.0,  999.0,  999.0,  999.0,  999.0
2004/06/27 17:30,    5.4,    6.7,    7.2,    8.4,    8.2,    7.9,    8.8,    9.1,    9.7,    8.6,    8.7,    7.5,  999.0,    2.9,   -0.4,  999.0,  999.0,    3.3,   -0.4,    3.2,  999.0,  999.0,    0.6,   -0.2,  999.0,  999.0,  999.0,  999.0,  999.0,  999.0
2004/06/27 17:40,    5.8,    6.3,    7.5,    8.3,    8.1,    7.9,    8.2,    8.5,    9.8,    9.5,   13.5,  999.0,  999.0,   -0.5,   -0.4,  999.0,  999.0,   -0.1,  999.0,  999.0,  999.0,   -0.6,   -1.7,  999.0,  999.0,  999.0,  999.0,  999.0,  999.0,  999.0
2004/06/27 17:50,    6.4,    6.4,    7.7,   10.6,    7.4,    8.0,    9.0,    9.1,   10.4,   10.6,    9.3,  999.0,  999.0,  999.0,    0.5,  999.0,  999.0,  999.0,  999.0,  999.0,  999.0,  999.0,  999.0,  999.0,  999.0,  999.0,  999.0,  999.0,  999.0,  999.0
2004/06/27 18:00,    6.2,    7.4,    8.0,    9.8,    7.1,    7.9,    9.5,    8.7,    9.9,  999.0,    8.6,  999.0,  999.0,    2.2,    0.6,    1.7,  999.0,   -0.8,    2.0,    3.5,  999.0,  999.0,    0.5,   -0.3,  999.0,  999.0,  999.0,  999.0,  999.0,  999.0
2004/06/27 18:10,    5.8,    6.6,    8.0,    9.0,    8.4,    9.3,    9.8,   10.9,   10.3,   10.0,    9.2,  999.0,  999.0,    1.6,    1.6,   -1.0,    0.1,  999.0,  999.0,    1.7,  999.0,  999.0,  999.0,   -0.4,  999.0,  999.0,  999.0,  999.0,  999.0,  999.0
2004/06/27 18:20,    6.5,    6.4,    6.8,    7.2,    8.6,    8.6,    8.0,    9.6,    9.3,   10.0,    9.3,  999.0,  999.0,    6.3,    1.1,  999.0,    0.1,    0.0,   -0.1,   -0.5,    4.5,    0.1,    0.2,   -1.5,  999.0,  999.0,  999.0,  999.0,  999.0,  999.0
2004/06/27 18:30,    4.9,    5.9,    7.0,    8.2,    8.5,    8.6,    8.7,  999.0,   10.9,   10.7,    9.3,  999.0,  999.0,    5.8,    0.3,    1.7,  999.0,    0.2,   -1.2,    4.2,    0.0,   -0.1,   -0.2,  999.0,  999.0,  999.0,  999.0,  999.0,  999.0,  999.0
2004/06/27 18:40,  999.0,    5.5,    8.3,    8.3,    8.4,    9.4,    9.3,    8.0,    8.0,   10.4,    9.2,  999.0,  999.0,    6.0,    1.1,  999.0,  999.0,   -0.6,  999.0,    0.5,  999.0,  999.0,  999.0,    0.4,  999.0,  999.0,  999.0,  999.0,  999.0,  999.0
2004/06/27 18:50,  999.0,  999.0,  999.0,    8.6,   12.4,   10.7,   11.1,   10.4,    5.2,   10.4,    9.2,    9.4,    9.4,    8.2,  999.0,    7.9,  999.0,  999.0,    0.3,  999.0,  999.0,  999.0,  999.0,    0.4,  999.0,  999.0,  999.0,  999.0,  999.0,  999.0
2004/06/27 19:00,  999.0,  999.0,    8.2,    6.2,    4.6,    9.8,   10.3,    2.2,    3.5,    9.5,  999.0,    9.0,  999.0,    8.4,    0.1,  999.0,  999.0,  999.0,    0.6,  999.0,  999.0,  999.0,    0.1,  999.0,  999.0,  999.0,  999.0,  999.0,  999.0,  999.0
2004/06/27 19:10,  999.0,  999.0,  999.0,    5.5,    8.3,  999.0,  999.0,  999.0,    7.0,  999.0,  999.0,  999.0,    9.2,    8.2,    1.5,  999.0,  999.0,  999.0,  999.0,    1.2,  999.0,  999.0,  999.0,    0.5,  999.0,  999.0,  999.0,  999.0,  999.0,  999.0
2004/06/27 19:20,  999.0,    1.0,    7.6,    6.2,    6.7,  999.0,    9.2,   10.7,    8.1,    7.4,  999.0,    8.9,    8.4,    9.4,    0.2,  999.0,  999.0,  999.0,    1.1,  999.0,  999.0,  999.0,    0.0,    1.2,  999.0,  999.0,  999.0,  999.0,  999.0,  999.0
2004/06/27 19:30,  999.0,    6.3,    5.8,    6.3,  999.0,    6.4,    4.5,    7.6,    7.5,    9.2,    9.6,    9.1,    9.6,    8.8,    0.9,  999.0,  999.0,  999.0,  999.0,  999.0,  999.0,  999.0,  999.0,  999.0,  999.0,  999.0,  999.0,  999.0,  999.0,  999.0
2004/06/27 19:40,    4.2,    6.4,    5.1,    7.7,    6.9,    6.5,    6.5,    8.9,    4.6,  999.0,  999.0,    9.1,    9.1,  999.0,  999.0,  999.0,  999.0,  999.0,  999.0,  999.0,  999.0,  999.0,  999.0,  999.0,  999.0,  999.0,  999.0,  999.0,  999.0,  999.0
2004/06/27 19:50,    3.2,    4.3,    6.7,    7.4,    7.4,    5.2,    7.1,    7.3,    4.8,  999.0,    6.2,  999.0,    8.8,  999.0,  999.0,  999.0,  999.0,  999.0,  999.0,  999.0,  999.0,  999.0,  999.0,   -1.3,  999.0,  999.0,  999.0,  999.0,  999.0,  999.0
2004/06/27 20:00,    3.9,    3.3,    4.9,    7.3,    7.0,    5.3,    6.3,    8.3,    9.1,  999.0,  999.0,  999.0,    9.5,  999.0,  999.0,  999.0,  999.0,  999.0,    0.3,  999.0,  999.0,  999.0,  999.0,    0.4,  999.0,  999.0,  999.0,  999.0,  999.0,  999.0
2004/06/27 20:10,    4.2,    3.5,    4.7,    6.0,    6.8,  999.0,    6.4,    7.9,    6.4,    9.2,  999.0,    9.0,  999.0,  999.0,  999.0,  999.0,  999.0,  999.0,  999.0,  999.0,  999.0,  999.0,  999.0,    1.8,  999.0,  999.0,  999.0,  999.0,  999.0,  999.0
2004/06/27 20:20,    3.5,    4.5,    6.6,    7.2,    4.6,    4.3,  999.0,    6.6,    8.0,  999.0,  999.0,  999.0,    9.4,  999.0,  999.0,  999.0,  999.0,  999.0,  999.0,  999.0,  999.0,  999.0,  999.0,    0.7,  999.0,  999.0,  999.0,  999.0,  999.0,  999.0
2004/06/27 20:30,    5.8,    6.5,    7.1,    8.2,    8.1,  999.0,    7.0,    6.8,    5.2,    7.5,    8.0,  999.0,    8.5,  999.0,  999.0,  999.0,  999.0,  999.0,   -0.1,  999.0,  999.0,  999.0,  999.0,  999.0,  999.0,  999.0,  999.0,  999.0,  999.0,  999.0
2004/06/27 20:40,    3.5,    4.7,    7.2,    8.7,    8.4,    6.6,    8.5,    7.9,    7.1,    8.1,    7.4,  999.0,  999.0,    9.0,  999.0,  999.0,  999.0,  999.0,  999.0,  999.0,  999.0,  999.0,  999.0,  999.0,  999.0,  999.0,  999.0,  999.0,  999.0,  999.0
2004/06/27 20:50,    3.9,    6.2,    6.3,  999.0,    6.0,  999.0,    7.2,    7.1,    7.8,    7.2,    8.1,  999.0,    8.5,    8.7,  999.0,  999.0,  999.0,  999.0,    1.5,  999.0,  999.0,  999.0,    1.5,   -0.7,  999.0,  999.0,  999.0,  999.0,  999.0,  999.0
2004/06/27 21:00,    6.5,    7.0,    7.2,    8.0,    7.2,   10.0,    6.1,    5.2,    6.7,    7.5,    8.7,    9.1,  999.0,  999.0,    5.0,  999.0,  999.0,  999.0,  999.0,  999.0,  999.0,  999.0,  999.0,   -0.5,  999.0,  999.0,  999.0,  999.0,  999.0,  999.0
2004/06/27 21:10,    5.4,    6.2,    6.6,    8.7,    7.5,  999.0,  999.0,    9.2,  999.0,    8.1,    8.5,    9.6,  999.0,  999.0,    4.2,  999.0,  999.0,  999.0,    8.4,  999.0,  999.0,  999.0,  999.0,  999.0,  999.0,  999.0,  999.0,  999.0,  999.0,  999.0
2004/06/27 21:20,    4.1,    5.9,    6.6,    7.4,    7.0,    9.1,  999.0,  999.0,  999.0,    8.1,    8.1,    8.9,  999.0,  999.0,  999.0,  999.0,  999.0,  999.0,    7.8,    5.9,  999.0,  999.0,  999.0,  999.0,  999.0,  999.0,  999.0,  999.0,  999.0,  999.0
2004/06/27 21:30,    4.1,    5.3,    5.3,    7.3,    7.6,    7.3,    7.7,    9.2,    9.9,    8.9,    8.7,  999.0,    9.3,    9.4,    2.1,  999.0,  999.0,  999.0,    5.6,  999.0,  999.0,  999.0,    1.9,  999.0,  999.0,  999.0,  999.0,  999.0,  999.0,  999.0
2004/06/27 21:40,    4.1,    7.3,    7.5,    6.7,    8.2,    7.9,    8.3,    9.0,    9.7,    9.1,  999.0,    9.8,   10.1,  999.0,    4.9,  999.0,  999.0,  999.0,    5.1,  999.0,  999.0,  999.0,  999.0,  999.0,  999.0,  999.0,  999.0,  999.0,  999.0,  999.0
2004/06/27 21:50,    4.5,    7.2,    7.0,    7.0,    7.4,    7.9,    8.2,    8.7,    9.3,    9.1,    7.5,  999.0,    8.8,  999.0,    1.0,  999.0,  999.0,  999.0,    5.8,    4.3,  999.0,  999.0,  999.0,  999.0,  999.0,  999.0,  999.0,  999.0,  999.0,  999.0
2004/06/27 22:00,    4.8,    6.1,    7.0,    7.0,    7.0,    9.1,    7.9,    8.4,    8.7,    8.2,    8.0,  999.0,    8.0,  999.0,  999.0,  999.0,  999.0,  999.0,  999.0,  999.0,  999.0,  999.0,  999.0,  999.0,  999.0,  999.0,  999.0,  999.0,  999.0,  999.0
2004/06/27 22:10,    5.0,    7.0,    7.6,    8.1,    8.3,    8.1,    6.8,    8.2,    9.4,    8.7,    9.3,   10.4,    9.4,  999.0,   -0.8,  999.0,  999.0,  999.0,  999.0,    5.2,  999.0,  999.0,  999.0,  999.0,  999.0,  999.0,  999.0,  999.0,  999.0,  999.0
2004/06/27 22:20,    4.7,    5.8,    6.5,    6.9,    7.4,    8.6,    7.0,    8.1,    9.0,    8.7,    7.8,  999.0,    8.7,    9.1,  999.0,  999.0,  999.0,  999.0,  999.0,  999.0,  999.0,  999.0,  999.0,    0.5,  999.0,  999.0,  999.0,  999.0,  999.0,  999.0
2004/06/27 22:30,    4.7,    6.8,    8.0,    7.1,    7.3,    8.8,    8.6,    7.5,    9.4,    7.1,    8.2,    8.0,    9.2,    8.4,  999.0,  999.0,  999.0,  999.0,  999.0,    5.7,  999.0,  999.0,  999.0,  999.0,  999.0,  999.0,  999.0,  999.0,  999.0,  999.0
2004/06/27 22:40,    6.2,    7.4,    7.4,    6.2,    9.2,    7.9,    7.5,    8.2,    7.4,    7.8,    7.6,    8.5,    8.8,    7.9,  999.0,  999.0,  999.0,  999.0,  999.0,  999.0,  999.0,  999.0,  999.0,  999.0,  999.0,  999.0,  999.0,  999.0,  999.0,  999.0
2004/06/27 22:50,    6.0,    6.3,    6.3,    5.8,    7.0,    7.9,    7.8,    7.5,    8.4,    9.2,   10.4,    8.9,    8.2,    8.7,    0.3,  999.0,  999.0,  999.0,  999.0,    6.1,  999.0,  999.0,   -0.4,  999.0,  999.0,  999.0,  999.0,  999.0,  999.0,  999.0
2004/06/27 23:00,    4.5,    6.8,    7.7,    6.7,    7.2,    8.3,    9.1,    9.0,   10.2,    9.5,    9.2,    9.3,    9.5,    9.1,    2.6,    8.2,    9.2,  999.0,  999.0,    8.2,  999.0,  999.0,  999.0,  999.0,  999.0,  999.0,  999.0,  999.0,  999.0,  999.0
2004/06/27 23:10,    6.3,    7.4,    7.7,    8.7,  999.0,    5.2,    8.6,    8.2,    8.9,    9.4,    8.8,    7.9,    8.2,    7.8,    6.9,    6.9,    6.4,  999.0,  999.0,  999.0,  999.0,  999.0,  999.0,  999.0,  999.0,  999.0,  999.0,  999.0,  999.0,  999.0
2004/06/27 23:20,    5.8,    7.8,    7.6,    8.4,    9.0,    8.6,    7.9,    9.0,    8.0,    9.4,    8.9,    8.8,    9.0,    9.6,    7.5,  999.0,    7.6,    7.2,    6.3,  999.0,    3.7,  999.0,  999.0,  999.0,  999.0,  999.0,  999.0,  999.0,  999.0,  999.0
2004/06/27 23:30,    5.7,    6.1,    7.2,    7.8,    7.5,    8.1,    9.6,    8.9,    8.6,    8.4,    8.5,    9.1,    9.3,    8.8,    6.2,    5.8,    7.2,    8.7,    5.9,    5.1,  999.0,  999.0,   -0.4,    0.3,  999.0,  999.0,  999.0,  999.0,  999.0,  999.0
2004/06/27 23:40,    5.2,    6.4,    6.5,    8.3,    7.4,    8.9,    7.5,    8.4,    8.0,    7.6,    8.3,    8.8,    8.5,    9.1,  999.0,  999.0,    8.8,  999.0,    7.6,    5.4,    3.6,    0.7,  999.0,  999.0,  999.0,  999.0,  999.0,  999.0,  999.0,  999.0
2004/06/27 23:50,    4.2,    4.8,    7.0,    7.3,    7.1,    7.3,    6.7,    6.6,    7.9,    6.7,    8.8,    8.8,    8.5,    7.9,    7.8,    8.6,  999.0,  999.0,  999.0,    6.8,  999.0,    4.5,  999.0,  999.0,  999.0,  999.0,  999.0,  999.0,  999.0,  999.0
